SCP
0 0 1 1 1 0 0 0 0 0 0 0 0 0 0 0 0 0 0 0 0 0 0 0 0 0 0 0 0 0 0 0 0 0 0 0 0 0 0 0 0 0 0
0 0 1 1 1 0 0 0 0 0 0 0 0 0 0 0 0 0 0 0 0 0 0 0 0 0 0 0 0 0 0 0 0 0 0 0 0 0 0 0 0 0 0
0 0 0 1 1 0 0 0 0 0 0 0 0 0 0 0 0 0 0 0 0 0 0 0 0 0 0 0 0 0 0 0 0 0 0 0 0 0 0 0 0 0 0
0 0 0 1 1 0 0 0 0 0 0 0 0 0 0 0 0 0 0 0 0 0 0 0 0 0 0 0 0 0 0 0 0 0 0 0 1 0 0 0 0 0 0
0 0 0 1 1 1 1 1 1 1 0 0 0 0 0 0 0 0 0 0 0 0 0 0 0 0 0 0 0 0 0 0 0 0 0 0 1 0 0 0 0 0 0
0 0 0 1 1 1 1 1 1 1 1 0 0 0 0 0 0 0 0 0 0 0 0 0 0 0 0 0 0 0 0 0 0 0 0 0 0 1 1 0 0 0 0
0 0 0 1 2 1 1 1 1 1 1 1 0 0 0 0 0 0 0 0 0 0 0 0 0 0 0 0 0 0 0 0 0 0 0 0 0 1 1 0 0 0 0
0 0 0 1 2 2 2 1 1 1 1 1 1 1 1 1 0 0 0 0 0 0 0 0 0 0 0 0 0 0 0 0 0 0 0 0 0 0 1 1 1 0 0
0 0 1 1 2 2 2 1 1 1 1 1 1 1 1 1 1 0 0 0 0 0 0 0 0 0 0 0 0 0 0 0 0 0 0 0 0 0 1 1 1 1 0
0 0 1 1 2 1 1 2 2 2 2 2 2 1 1 0 0 0 0 0 0 0 0 0 0 0 0 0 0 0 0 0 0 0 0 0 0 0 1 1 1 1 0
0 0 1 1 2 1 1 1 2 2 1 2 1 1 0 0 0 0 0 0 0 0 0 0 0 0 0 0 0 0 0 0 0 0 0 0 0 0 0 1 1 1 1
0 0 0 1 1 2 2 2 2 1 1 1 1 0 0 0 0 0 0 0 0 0 0 0 0 0 0 0 0 0 0 0 0 0 0 0 0 0 0 0 1 1 1
0 0 1 1 2 2 2 2 2 1 1 1 1 0 0 0 0 0 0 0 0 0 0 0 0 0 0 0 0 0 0 0 0 0 0 0 0 0 0 0 1 1 1
0 0 1 1 2 2 2 2 1 1 1 0 0 0 0 0 0 0 0 0 0 0 0 0 0 0 0 0 0 0 0 0 0 0 0 0 0 0 0 0 1 1 1
0 0 1 1 2 2 1 1 0 0 0 0 0 0 0 0 0 0 0 0 0 0 0 0 0 0 0 0 0 0 0 0 0 0 0 0 0 0 0 0 1 1 0
0 0 0 0 1 1 1 0 0 0 0 0 0 0 0 0 0 0 0 0 0 0 0 0 0 0 0 0 0 0 0 0 0 0 0 0 0 0 0 1 1 1 0
0 0 0 0 0 0 0 0 0 0 0 0 0 0 0 0 0 0 0 0 0 0 0 0 0 0 0 0 0 0 0 0 0 0 0 0 0 0 0 0 1 1 0
0 0 0 0 0 0 0 0 0 0 0 0 0 0 0 0 0 0 0 0 0 0 0 0 0 0 0 0 0 0 0 0 0 0 0 0 0 0 0 0 1 0 0
0 0 0 0 0 0 0 0 0 0 0 0 0 0 0 0 0 0 0 0 0 0 0 0 0 0 0 0 0 0 0 0 0 0 0 0 0 1 1 1 1 0 0
0 0 0 0 0 0 0 0 0 0 0 0 0 0 0 0 0 0 0 0 0 0 0 0 0 0 0 0 0 0 0 0 0 0 0 0 0 1 1 1 1 1 0
0 0 0 0 0 0 0 0 0 0 0 0 0 0 0 0 0 0 0 0 0 0 0 0 0 0 0 0 0 0 0 0 0 0 0 0 0 1 1 1 1 1 1
0 0 0 0 0 0 0 0 0 0 0 0 0 0 0 0 0 0 0 0 0 0 0 0 0 0 0 0 0 0 0 0 0 0 0 0 0 0 0 0 0 1 1
0 0 0 0 0 0 0 0 0 0 0 0 0 0 0 0 0 0 0 0 0 0 0 0 0 0 0 0 0 0 0 0 0 0 0 0 0 0 0 0 0 0 0
0 0 0 0 0 0 0 0 0 0 0 0 0 0 0 0 0 0 0 0 0 0 0 0 0 0 -0 0 0 0 0 0 0 0 0 0 0 0 0 0 0 0 0
0 0 0 0 0 0 0 0 0 1 0 0 0 0 0 0 0 0 0 0 -0 -0 0 0 0 0 0 0 0 0 0 0 0 0 0 0 0 0 0 0 0 0 0
0 0 0 0 0 0 0 0 0 0 0 0 0 0 0 0 0 0 -0 0 0 0 0 0 0 0 0 0 0 0 0 0 0 0 0 0 0 0 0 0 0 0 0
Wind_Speed_500mb
39 36 33 30 29 25 23 20 17 14 14 16 17 17 18 18 19 20 21 22 23 24 25 24 20 24 29 31 33 36 36 34 34 34 32 33 27 24 20 17 17 21 15
22 35 34 33 29 26 24 22 21 20 18 17 19 19 20 19 19 20 20 18 19 21 23 23 24 20 23 28 30 34 37 38 36 36 34 33 36 32 27 24 20 27 19
28 28 36 32 31 28 27 24 24 23 20 20 20 20 20 20 21 20 19 18 19 21 24 24 23 22 21 23 28 30 34 39 40 37 37 36 33 37 33 27 25 29 23
28 27 30 31 34 32 27 22 22 23 22 23 24 24 23 22 23 23 23 22 25 27 26 27 24 22 23 22 24 28 32 36 40 40 36 37 35 35 38 34 31 32 29
31 25 25 35 36 38 33 28 23 21 21 23 24 26 27 27 25 25 29 30 29 31 29 23 23 25 26 23 25 23 29 32 34 37 39 39 37 37 36 39 37 35 34
29 26 28 36 35 39 36 31 25 21 18 19 23 27 27 25 29 33 34 35 37 34 31 31 34 36 32 29 30 27 26 28 30 26 37 41 39 40 40 37 40 37 36
28 27 32 35 40 41 38 34 27 22 18 17 21 24 21 29 35 36 37 39 38 38 37 37 36 36 38 35 34 32 29 26 26 25 30 37 43 39 43 43 37 35 38
29 24 32 37 41 40 37 32 28 24 21 18 21 21 21 33 37 38 40 43 45 43 43 43 40 39 41 39 39 37 34 32 24 28 30 33 42 43 44 45 44 37 34
36 32 32 39 42 43 41 36 30 26 22 22 24 21 29 32 35 37 42 46 48 52 52 49 53 48 49 46 44 42 39 35 27 27 29 33 37 44 44 45 45 45 38
44 41 37 40 45 49 48 44 36 28 24 24 27 26 28 31 35 39 38 40 40 39 40 47 52 52 50 51 48 45 44 39 31 31 30 33 35 41 43 43 45 45 45
56 53 47 46 51 51 50 45 39 30 27 26 30 29 30 35 36 33 36 32 29 31 33 34 35 38 43 49 49 47 44 35 35 33 30 36 38 40 43 42 42 45 46
69 65 59 54 54 53 53 48 41 32 30 28 31 31 34 36 35 32 30 26 28 27 30 30 33 38 36 31 34 43 39 36 36 34 34 33 39 41 45 43 43 45 46
75 73 66 61 55 56 55 49 41 34 30 31 32 33 33 35 35 32 28 25 24 24 25 26 32 36 36 31 29 30 33 36 33 32 36 39 38 42 45 44 44 45 47
78 81 74 64 57 58 56 50 39 34 32 31 31 30 29 30 32 30 29 27 26 25 26 26 26 27 32 33 35 30 32 34 34 31 40 44 42 41 47 45 44 44 46
77 86 81 70 61 61 59 50 41 34 34 29 29 26 27 27 26 28 31 31 29 28 27 28 27 27 27 29 33 35 32 36 37 34 37 42 43 43 47 45 40 41 44
70 79 87 76 62 61 55 47 38 34 31 28 24 25 27 29 29 29 31 33 33 33 28 27 27 28 27 29 28 31 34 35 36 36 37 39 42 43 45 45 41 40 43
65 80 89 76 65 60 52 44 37 34 30 24 22 26 30 33 33 32 32 33 32 33 30 27 26 25 27 27 29 32 32 32 32 33 36 36 37 40 41 43 40 38 41
66 82 79 74 66 58 50 42 37 34 28 21 21 26 31 34 34 33 31 30 28 31 31 28 28 24 26 25 29 31 31 29 28 30 32 31 32 34 36 40 39 37 38
54 72 66 70 64 55 48 41 38 33 26 22 24 28 30 33 32 30 29 27 28 31 31 29 28 25 26 28 26 28 29 29 26 28 27 28 27 28 29 33 34 30 34
45 51 54 66 62 53 46 41 37 31 24 24 27 30 31 31 28 28 27 25 28 29 27 26 25 26 26 25 24 27 26 26 25 24 25 27 24 25 26 27 27 30 42
34 42 53 63 60 55 47 42 34 28 23 24 27 32 31 26 24 25 27 26 26 26 25 25 26 27 26 25 23 21 20 19 18 21 21 20 22 24 24 25 23 28 38
31 42 52 60 58 49 41 31 26 21 22 22 26 27 22 19 21 25 27 23 21 22 24 24 26 27 27 28 21 18 14 14 19 20 19 20 22 22 20 22 24 33 33
33 43 55 58 49 40 32 27 20 19 17 18 18 17 15 15 18 20 19 17 18 17 17 18 22 26 27 32 23 14 12 13 16 13 15 16 15 14 14 16 21 29 29
33 44 57 50 42 34 28 21 17 14 11 13 14 12 14 12 9 4 7 12 13 11 11 10 16 24 28 29 29 21 14 16 14 10 11 8 8 8 6 7 16 27 33
41 57 51 44 35 29 24 20 13 6 8 10 11 12 14 10 5 5 6 9 7 6 8 15 19 25 26 25 29 26 18 15 20 16 17 18 12 9 9 26 20 24 31
56 57 49 39 32 27 22 17 9 4 7 9 12 15 12 10 8 8 10 8 6 5 8 12 18 22 23 20 19 27 22 6 12 16 25 29 25 27 25 17 25 33 60
Wind_Direction_500mb
188 190 197 203 207 213 215 225 232 243 263 279 281 277 274 266 258 249 243 248 258 265 270 270 265 253 257 248 243 236 232 227 225 226 221 222 221 219 216 226 211 193 186
187 187 197 205 208 214 215 226 233 241 256 271 279 281 281 277 271 261 250 240 253 262 265 265 267 265 252 257 245 240 235 232 226 226 226 223 225 225 227 227 219 202 203
188 185 196 204 208 213 214 224 231 241 261 279 282 277 278 282 274 267 251 263 263 262 262 265 267 267 266 252 254 244 239 237 232 226 228 226 227 224 226 229 217 211 214
184 182 189 195 205 212 217 224 236 247 267 280 284 284 280 277 267 269 259 277 290 284 263 250 262 270 266 266 254 250 245 242 238 231 229 229 229 228 224 229 220 213 214
181 184 187 196 201 210 216 223 233 247 272 285 287 284 280 276 255 257 267 274 285 284 279 261 268 272 269 272 269 258 253 250 248 238 233 229 227 229 224 223 223 217 212
188 190 195 200 204 212 217 223 229 243 267 286 293 289 278 270 265 265 267 265 273 271 265 256 247 247 258 260 270 268 261 253 248 243 236 231 226 224 228 220 220 224 221
196 194 202 203 209 214 218 222 227 240 257 280 293 290 274 268 267 266 266 264 268 264 264 260 258 260 252 249 252 259 263 258 246 241 239 230 227 223 226 226 222 224 223
205 206 208 209 212 216 220 222 229 240 252 279 298 294 274 268 267 265 264 263 265 262 261 260 253 258 254 250 252 252 252 256 248 239 239 235 228 224 223 226 224 222 222
208 211 215 215 214 219 225 225 227 238 257 278 295 290 269 268 268 270 272 271 268 265 259 256 256 255 251 251 251 247 248 248 239 239 238 236 230 225 225 223 222 224 220
217 216 221 220 219 219 223 226 229 239 259 277 289 283 275 271 269 275 275 275 271 268 261 254 254 253 252 252 252 247 244 245 241 238 237 236 229 226 225 226 223 224 221
222 221 223 225 224 223 226 228 229 241 259 277 284 280 277 275 275 269 275 271 269 266 263 259 256 255 253 250 247 245 242 240 235 235 236 237 230 226 225 225 224 223 223
227 228 226 227 224 225 225 226 229 242 260 279 282 281 277 277 272 269 270 266 268 263 259 259 249 251 266 252 246 243 238 231 230 233 238 234 233 229 224 225 226 223 223
240 233 230 229 226 226 226 227 233 244 260 278 278 276 274 273 267 266 265 265 269 265 264 259 257 259 256 253 240 232 230 227 228 233 236 231 232 230 225 225 226 224 224
245 242 234 230 227 226 227 229 237 248 266 272 272 267 269 270 265 263 261 260 265 262 265 267 265 265 254 253 245 239 230 224 227 233 235 229 232 229 226 226 228 227 227
256 244 238 233 227 227 224 228 236 251 266 266 266 262 268 270 269 265 264 261 262 263 266 265 261 261 257 249 240 236 229 223 223 232 235 232 233 231 227 227 228 230 227
263 252 241 232 226 225 225 229 239 254 256 260 262 270 273 269 270 269 266 264 259 255 262 263 257 256 255 245 234 226 225 225 227 239 237 232 234 236 228 227 230 232 226
273 257 244 230 224 225 225 226 236 251 249 258 271 276 277 273 271 269 266 263 259 248 255 258 253 256 250 245 231 225 224 225 231 239 232 235 243 239 231 226 233 237 229
275 262 242 228 224 223 221 222 239 243 246 257 276 281 280 276 270 265 267 267 260 248 249 251 247 255 246 240 229 222 218 224 236 234 230 238 247 237 231 228 236 242 237
267 259 243 226 220 217 213 221 236 237 245 260 277 287 283 278 271 263 263 261 256 247 241 243 246 250 239 233 226 219 220 227 236 228 232 242 237 234 233 233 243 247 237
258 254 235 220 214 207 206 221 231 235 247 266 279 286 288 281 266 259 261 259 253 244 241 244 250 250 236 224 217 219 224 226 231 224 237 238 231 234 235 238 244 240 220
246 234 216 207 200 198 205 219 227 235 250 274 284 288 290 278 265 264 261 255 252 240 242 244 248 241 228 211 210 210 215 229 216 227 239 231 231 235 234 236 242 220 215
233 215 202 197 194 194 211 218 223 234 255 277 288 292 291 275 266 268 267 249 239 232 242 248 245 235 218 205 200 182 177 191 207 226 238 226 234 233 232 236 224 200 209
212 200 190 180 182 196 204 207 216 235 265 294 295 303 293 284 280 273 258 235 223 237 245 246 237 222 204 199 189 176 161 189 184 208 220 223 219 205 223 218 192 197 193
198 179 170 173 184 189 195 197 207 237 271 296 306 307 302 300 305 264 202 203 219 231 233 226 208 194 194 203 193 190 182 178 171 173 172 184 177 174 209 187 178 199 190
173 166 168 177 179 182 186 187 203 264 282 303 319 315 302 301 273 214 193 181 184 197 212 203 193 186 193 202 200 194 177 162 163 153 164 148 147 157 109 127 137 171 197
161 166 172 173 173 177 184 187 183 297 299 319 320 313 303 276 216 166 150 144 152 176 194 178 178 185 191 202 207 199 195 160 177 180 155 148 139 146 144 143 145 160 170
Wind_Speed_850mb
39 36 33 30 29 25 23 20 17 14 14 16 17 17 18 18 19 20 21 22 23 24 25 24 20 24 29 31 33 36 36 34 34 34 32 33 27 24 20 17 17 21 15
22 35 34 33 29 26 24 22 21 20 18 17 19 19 20 19 19 20 20 18 19 21 23 23 24 20 23 28 30 34 37 38 36 36 34 33 36 32 27 24 20 27 19
28 28 36 32 31 28 27 24 24 23 20 20 20 20 20 20 21 20 19 18 19 21 24 24 23 22 21 23 28 30 34 39 40 37 37 36 33 37 33 27 25 29 23
28 27 30 31 34 32 27 22 22 23 22 23 24 24 23 22 23 23 23 22 25 27 26 27 24 22 23 22 24 28 32 36 40 40 36 37 35 35 38 34 31 32 29
31 25 25 35 36 38 33 28 23 21 21 23 24 26 27 27 25 25 29 30 29 31 29 23 23 25 26 23 25 23 29 32 34 37 39 39 37 37 36 39 37 35 34
29 26 28 36 35 39 36 31 25 21 18 19 23 27 27 25 29 33 34 35 37 34 31 31 34 36 32 29 30 27 26 28 30 26 37 41 39 40 40 37 40 37 36
28 27 32 35 40 41 38 34 27 22 18 17 21 24 21 29 35 36 37 39 38 38 37 37 36 36 38 35 34 32 29 26 26 25 30 37 43 39 43 43 37 35 38
29 24 32 37 41 40 37 32 28 24 21 18 21 21 21 33 37 38 40 43 45 43 43 43 40 39 41 39 39 37 34 32 24 28 30 33 42 43 44 45 44 37 34
36 32 32 39 42 43 41 36 30 26 22 22 24 21 29 32 35 37 42 46 48 52 52 49 53 48 49 46 44 42 39 35 27 27 29 33 37 44 44 45 45 45 38
44 41 37 40 45 49 48 44 36 28 24 24 27 26 28 31 35 39 38 40 40 39 40 47 52 52 50 51 48 45 44 39 31 31 30 33 35 41 43 43 45 45 45
56 53 47 46 51 51 50 45 39 30 27 26 30 29 30 35 36 33 36 32 29 31 33 34 35 38 43 49 49 47 44 35 35 33 30 36 38 40 43 42 42 45 46
69 65 59 54 54 53 53 48 41 32 30 28 31 31 34 36 35 32 30 26 28 27 30 30 33 38 36 31 34 43 39 36 36 34 34 33 39 41 45 43 43 45 46
75 73 66 61 55 56 55 49 41 34 30 31 32 33 33 35 35 32 28 25 24 24 25 26 32 36 36 31 29 30 33 36 33 32 36 39 38 42 45 44 44 45 47
78 81 74 64 57 58 56 50 39 34 32 31 31 30 29 30 32 30 29 27 26 25 26 26 26 27 32 33 35 30 32 34 34 31 40 44 42 41 47 45 44 44 46
77 86 81 70 61 61 59 50 41 34 34 29 29 26 27 27 26 28 31 31 29 28 27 28 27 27 27 29 33 35 32 36 37 34 37 42 43 43 47 45 40 41 44
70 79 87 76 62 61 55 47 38 34 31 28 24 25 27 29 29 29 31 33 33 33 28 27 27 28 27 29 28 31 34 35 36 36 37 39 42 43 45 45 41 40 43
65 80 89 76 65 60 52 44 37 34 30 24 22 26 30 33 33 32 32 33 32 33 30 27 26 25 27 27 29 32 32 32 32 33 36 36 37 40 41 43 40 38 41
66 82 79 74 66 58 50 42 37 34 28 21 21 26 31 34 34 33 31 30 28 31 31 28 28 24 26 25 29 31 31 29 28 30 32 31 32 34 36 40 39 37 38
54 72 66 70 64 55 48 41 38 33 26 22 24 28 30 33 32 30 29 27 28 31 31 29 28 25 26 28 26 28 29 29 26 28 27 28 27 28 29 33 34 30 34
45 51 54 66 62 53 46 41 37 31 24 24 27 30 31 31 28 28 27 25 28 29 27 26 25 26 26 25 24 27 26 26 25 24 25 27 24 25 26 27 27 30 42
34 42 53 63 60 55 47 42 34 28 23 24 27 32 31 26 24 25 27 26 26 26 25 25 26 27 26 25 23 21 20 19 18 21 21 20 22 24 24 25 23 28 38
31 42 52 60 58 49 41 31 26 21 22 22 26 27 22 19 21 25 27 23 21 22 24 24 26 27 27 28 21 18 14 14 19 20 19 20 22 22 20 22 24 33 33
33 43 55 58 49 40 32 27 20 19 17 18 18 17 15 15 18 20 19 17 18 17 17 18 22 26 27 32 23 14 12 13 16 13 15 16 15 14 14 16 21 29 29
33 44 57 50 42 34 28 21 17 14 11 13 14 12 14 12 9 4 7 12 13 11 11 10 16 24 28 29 29 21 14 16 14 10 11 8 8 8 6 7 16 27 33
41 57 51 44 35 29 24 20 13 6 8 10 11 12 14 10 5 5 6 9 7 6 8 15 19 25 26 25 29 26 18 15 20 16 17 18 12 9 9 26 20 24 31
56 57 49 39 32 27 22 17 9 4 7 9 12 15 12 10 8 8 10 8 6 5 8 12 18 22 23 20 19 27 22 6 12 16 25 29 25 27 25 17 25 33 60
Wind_Direction_850mb
188 190 197 203 207 213 215 225 232 243 263 279 281 277 274 266 258 249 243 248 258 265 270 270 265 253 257 248 243 236 232 227 225 226 221 222 221 219 216 226 211 193 186
187 187 197 205 208 214 215 226 233 241 256 271 279 281 281 277 271 261 250 240 253 262 265 265 267 265 252 257 245 240 235 232 226 226 226 223 225 225 227 227 219 202 203
188 185 196 204 208 213 214 224 231 241 261 279 282 277 278 282 274 267 251 263 263 262 262 265 267 267 266 252 254 244 239 237 232 226 228 226 227 224 226 229 217 211 214
184 182 189 195 205 212 217 224 236 247 267 280 284 284 280 277 267 269 259 277 290 284 263 250 262 270 266 266 254 250 245 242 238 231 229 229 229 228 224 229 220 213 214
181 184 187 196 201 210 216 223 233 247 272 285 287 284 280 276 255 257 267 274 285 284 279 261 268 272 269 272 269 258 253 250 248 238 233 229 227 229 224 223 223 217 212
188 190 195 200 204 212 217 223 229 243 267 286 293 289 278 270 265 265 267 265 273 271 265 256 247 247 258 260 270 268 261 253 248 243 236 231 226 224 228 220 220 224 221
196 194 202 203 209 214 218 222 227 240 257 280 293 290 274 268 267 266 266 264 268 264 264 260 258 260 252 249 252 259 263 258 246 241 239 230 227 223 226 226 222 224 223
205 206 208 209 212 216 220 222 229 240 252 279 298 294 274 268 267 265 264 263 265 262 261 260 253 258 254 250 252 252 252 256 248 239 239 235 228 224 223 226 224 222 222
208 211 215 215 214 219 225 225 227 238 257 278 295 290 269 268 268 270 272 271 268 265 259 256 256 255 251 251 251 247 248 248 239 239 238 236 230 225 225 223 222 224 220
217 216 221 220 219 219 223 226 229 239 259 277 289 283 275 271 269 275 275 275 271 268 261 254 254 253 252 252 252 247 244 245 241 238 237 236 229 226 225 226 223 224 221
222 221 223 225 224 223 226 228 229 241 259 277 284 280 277 275 275 269 275 271 269 266 263 259 256 255 253 250 247 245 242 240 235 235 236 237 230 226 225 225 224 223 223
227 228 226 227 224 225 225 226 229 242 260 279 282 281 277 277 272 269 270 266 268 263 259 259 249 251 266 252 246 243 238 231 230 233 238 234 233 229 224 225 226 223 223
240 233 230 229 226 226 226 227 233 244 260 278 278 276 274 273 267 266 265 265 269 265 264 259 257 259 256 253 240 232 230 227 228 233 236 231 232 230 225 225 226 224 224
245 242 234 230 227 226 227 229 237 248 266 272 272 267 269 270 265 263 261 260 265 262 265 267 265 265 254 253 245 239 230 224 227 233 235 229 232 229 226 226 228 227 227
256 244 238 233 227 227 224 228 236 251 266 266 266 262 268 270 269 265 264 261 262 263 266 265 261 261 257 249 240 236 229 223 223 232 235 232 233 231 227 227 228 230 227
263 252 241 232 226 225 225 229 239 254 256 260 262 270 273 269 270 269 266 264 259 255 262 263 257 256 255 245 234 226 225 225 227 239 237 232 234 236 228 227 230 232 226
273 257 244 230 224 225 225 226 236 251 249 258 271 276 277 273 271 269 266 263 259 248 255 258 253 256 250 245 231 225 224 225 231 239 232 235 243 239 231 226 233 237 229
275 262 242 228 224 223 221 222 239 243 246 257 276 281 280 276 270 265 267 267 260 248 249 251 247 255 246 240 229 222 218 224 236 234 230 238 247 237 231 228 236 242 237
267 259 243 226 220 217 213 221 236 237 245 260 277 287 283 278 271 263 263 261 256 247 241 243 246 250 239 233 226 219 220 227 236 228 232 242 237 234 233 233 243 247 237
258 254 235 220 214 207 206 221 231 235 247 266 279 286 288 281 266 259 261 259 253 244 241 244 250 250 236 224 217 219 224 226 231 224 237 238 231 234 235 238 244 240 220
246 234 216 207 200 198 205 219 227 235 250 274 284 288 290 278 265 264 261 255 252 240 242 244 248 241 228 211 210 210 215 229 216 227 239 231 231 235 234 236 242 220 215
233 215 202 197 194 194 211 218 223 234 255 277 288 292 291 275 266 268 267 249 239 232 242 248 245 235 218 205 200 182 177 191 207 226 238 226 234 233 232 236 224 200 209
212 200 190 180 182 196 204 207 216 235 265 294 295 303 293 284 280 273 258 235 223 237 245 246 237 222 204 199 189 176 161 189 184 208 220 223 219 205 223 218 192 197 193
198 179 170 173 184 189 195 197 207 237 271 296 306 307 302 300 305 264 202 203 219 231 233 226 208 194 194 203 193 190 182 178 171 173 172 184 177 174 209 187 178 199 190
173 166 168 177 179 182 186 187 203 264 282 303 319 315 302 301 273 214 193 181 184 197 212 203 193 186 193 202 200 194 177 162 163 153 164 148 147 157 109 127 137 171 197
161 166 172 173 173 177 184 187 183 297 299 319 320 313 303 276 216 166 150 144 152 176 194 178 178 185 191 202 207 199 195 160 177 180 155 148 139 146 144 143 145 160 170